Starlink 33566

operational
NORAD ID: 62100 Int'l Des: 2024-220 Owner: SPXS Country: US Constellation: starlink
LEOCIRCULAR

About Starlink 33566

Description loading...

Live Position

Loading 3D Globe...

Upcoming Passes

Altitude History

Altitude vs Time

uPlot chart will show altitude changes over time

Two-Line Element Set

1 62100U 24220N 25258.27581438 .00075061 00000-0 27061-2 0 9996
2 62100 43.0031 101.4771 0001140 270.6531 89.4190 15.27622110 46539
Epoch: Sep 15, 2025 • Age: 14 hours

Current Status

Altitude 492.4 km
Velocity 7.62 km/s
Sub-Earth Point -35.93°S, 30.62°E
Launch Date Nov 25, 2024
Age 0.8 years
Type internet

Technical Details

Classification Payload
Mass 530.00 kg
Dry Mass 500.00 kg
Total Mass 530.00 kg
Length 0.30 m
Diameter 4.10 m
Span 29.00 m
Shape Box + pan
Manufacturer SPXS
Bus Type Starlink V2MO
Phase Status In Orbit
Owner/State SPXS/US

Large Constellations

Loading constellations...